Location: Nowy Sacz
(49.6330°N, 20.7170°E)
Time: 14:48:25
(UTC+01:00)

X-37B - Visible Passes

Search period start: 08 December 2022 00:00
Search period end: 18 December 2022 00:00
Orbit: 277 x 277 km, 45.0° (Epoch: 01 November)

Date Brightness Start Highest point End Pass type
(mag) Time Alt. Az. Time Alt. Az. Time Alt. Az.
09 Dec 2.6 17:02:33 10° S 17:03:19 11° SSE 17:04:00 10° SE visible
10 Dec 2.3 17:02:16 10° SSW 17:03:49 15° SSE 17:04:40 13° SE visible
11 Dec 2.0 17:02:27 10° SW 17:04:21 20° SSE 17:05:18 16° SE visible
12 Dec 1.8 17:02:51 10° SW 17:04:54 24° S 17:05:57 18° SE visible
13 Dec 1.7 17:03:20 10° WSW 17:05:28 26° S 17:06:37 18° SE visible
14 Dec 1.7 17:03:54 10° WSW 17:06:05 27° S 17:07:19 17° SE visible
15 Dec 1.9 17:04:32 10° WSW 17:06:39 25° S 17:08:06 15° SE visible
16 Dec 2.2 17:05:14 10° WSW 17:07:13 21° SSW 17:08:58 11° SE visible
17 Dec 2.7 17:06:02 10° WSW 17:07:45 17° SSW 17:09:28 10° SSE visible
